Wind_Speed
17 17 19 20 19 18 16 15 14 13 12 12 14 16 16 18 20 16 14 19 22 20 23 28 33 35 37 39 40 39 39 40 40 40 41 42 42 41 42 45 48 51 54 55 57 59 60 62 65 67 66 65 63 63 62 61 61 62 61 61 59 59 59 58 57 55 50 46 45 46 46 45 46 48 48 48 45 42 39 36 34 34 35 35 35 36 36
17 18 20 21 22 20 17 15 14 11 11 10 11 11 12 13 13 11 14 19 18 16 18 25 32 36 35 37 39 40 40 41 40 40 41 40 41 40 40 42 45 49 52 53 55 57 58 59 63 66 66 65 63 62 61 61 60 61 61 61 59 59 59 59 57 54 50 48 46 45 45 46 47 48 48 47 44 39 36 35 34 35 36 36 36 36 36
20 19 20 21 23 21 18 17 17 15 13 9 9 10 9 10 9 6 11 16 12 11 17 22 29 33 34 35 37 37 39 40 39 38 38 37 38 38 37 38 41 45 49 52 53 55 56 57 60 63 65 65 63 62 61 60 59 60 61 60 59 59 59 58 56 54 51 49 47 46 46 46 47 47 47 46 43 37 35 35 35 35 36 37 37 37 37
27 26 25 24 23 20 17 18 19 20 17 12 9 9 9 10 9 8 10 11 4 8 17 23 26 30 32 33 35 35 35 37 38 37 36 36 37 39 36 34 37 43 48 51 52 53 55 56 57 59 62 64 63 61 60 59 59 60 59 58 57 58 58 58 56 55 53 50 48 48 48 47 47 48 48 47 43 37 35 35 35 35 37 38 38 37 37
29 30 30 27 22 19 20 23 22 21 19 15 12 11 11 13 12 9 7 4 6 10 15 20 23 27 30 33 35 35 34 36 38 38 37 37 39 40 38 35 37 42 47 49 50 52 53 54 55 57 60 62 62 60 59 59 58 59 58 57 57 57 58 57 55 55 54 51 50 50 49 48 49 49 49 48 43 37 36 37 36 36 38 38 38 37 37
26 27 27 27 26 26 29 30 29 26 21 19 18 16 15 14 13 9 4 7 11 12 13 17 20 23 28 33 37 36 34 35 37 39 39 39 39 40 39 37 39 42 45 48 49 50 52 53 53 56 59 61 62 61 60 59 59 59 58 57 57 56 56 55 55 55 54 53 52 51 50 50 50 50 50 47 42 38 39 38 36 36 38 39 39 38 38
25 25 25 27 29 29 29 30 30 32 31 27 25 21 16 15 14 10 5 8 12 14 15 16 19 22 26 32 36 35 33 33 35 39 41 41 40 38 36 36 38 40 43 46 48 49 50 52 53 55 58 60 63 62 60 59 59 59 58 57 56 55 54 54 54 54 54 54 53 52 52 52 51 51 51 47 41 39 40 39 37 37 39 40 40 39 39
24 24 25 26 25 24 27 31 32 32 33 34 33 31 26 19 15 9 5 8 11 14 16 17 20 22 24 29 33 33 32 32 34 36 40 42 41 38 35 33 34 36 40 44 46 47 48 51 53 54 56 59 61 61 60 59 59 59 58 56 55 54 54 54 54 53 54 55 55 54 54 54 53 53 51 46 41 39 40 40 39 38 39 41 41 40 39
23 23 22 22 22 23 26 32 35 34 34 36 35 34 36 34 25 17 9 10 14 14 16 18 19 21 25 28 29 29 30 31 32 35 39 41 41 39 36 33 32 32 35 40 44 45 46 49 52 54 55 56 58 60 60 59 59 59 58 56 55 54 54 54 54 54 56 57 57 56 54 53 53 54 50 44 40 40 41 41 40 38 39 42 42 42 40
23 23 23 22 22 24 27 30 33 34 34 37 36 35 38 37 32 27 18 9 15 17 19 18 17 20 26 27 27 29 32 31 31 33 36 40 41 39 34 31 31 30 31 35 40 43 44 47 50 52 53 55 56 58 59 59 59 58 57 56 55 54 54 53 52 53 55 57 57 55 53 53 54 52 46 41 40 41 42 43 40 39 41 42 43 42 41
23 23 24 24 23 23 27 30 32 32 33 35 35 36 38 37 34 32 26 14 8 12 19 21 19 20 22 22 26 31 33 31 30 31 33 37 39 37 32 29 30 31 30 32 36 40 43 45 48 51 52 54 55 56 57 58 58 57 56 56 56 55 54 52 52 52 54 56 56 54 53 54 53 47 42 41 42 43 44 43 40 39 41 42 42 41 41
21 21 21 22 22 23 27 29 29 29 31 32 34 37 37 34 33 33 26 17 13 9 12 21 23 21 18 19 25 28 27 27 29 30 32 33 34 33 30 29 29 30 30 31 32 36 41 44 46 50 52 54 55 56 56 56 56 55 54 55 55 55 54 53 53 54 54 54 54 54 54 54 50 44 41 43 44 44 43 42 40 40 41 41 41 41 41
18 18 18 18 20 22 25 28 28 27 28 29 33 36 36 34 31 29 23 17 15 12 7 18 23 22 21 23 26 25 23 23 26 29 31 31 31 30 29 30 30 29 29 30 30 33 39 43 46 50 53 55 56 56 55 55 53 52 52 53 54 53 53 53 52 52 52 52 52 53 54 52 47 43 44 45 45 43 42 41 40 39 40 40 40 40 40
15 15 16 15 16 19 23 25 25 26 27 28 31 33 37 39 32 22 16 14 14 12 7 14 20 21 23 27 28 25 21 19 21 26 30 30 30 28 27 29 30 28 26 27 28 32 37 42 46 51 55 56 56 55 54 52 50 49 50 51 52 52 51 51 50 49 49 50 52 53 53 50 46 45 46 46 44 41 40 40 40 40 40 41 41 40 40
15 14 14 14 15 19 23 23 22 24 27 29 31 32 35 40 35 20 12 11 10 10 10 13 20 21 23 27 28 24 20 17 17 21 27 32 31 26 24 26 28 26 24 24 26 30 35 40 46 52 56 57 55 53 51 49 48 48 49 50 50 50 50 49 48 48 49 50 51 52 51 48 47 47 47 45 41 38 36 37 38 40 41 42 43 43 42
16 15 16 17 17 20 23 25 25 27 28 29 31 32 34 38 35 22 13 12 9 8 10 11 17 21 21 24 26 23 20 19 19 19 25 30 31 27 24 24 25 24 23 23 24 29 34 40 46 52 56 55 52 49 48 48 47 48 48 49 49 49 48 48 48 49 49 50 51 51 50 49 48 47 45 42 37 34 34 34 35 38 40 43 44 45 45
15 15 16 17 18 19 19 22 24 25 26 28 30 31 31 34 35 28 21 18 13 8 9 9 14 19 19 19 21 20 19 20 21 21 23 27 28 27 25 23 23 23 23 23 24 28 34 40 46 52 55 54 50 48 48 47 46 46 47 47 48 48 48 49 50 50 51 51 52 51 50 48 46 44 43 40 38 37 36 34 34 36 40 43 44 45 47
13 13 14 16 18 19 17 18 22 24 24 25 27 29 28 30 33 32 28 25 19 13 9 7 12 17 19 18 18 18 18 20 20 20 22 24 26 27 25 23 22 23 23 23 23 26 32 40 47 52 55 54 51 49 48 46 45 45 46 47 47 47 48 50 52 52 52 52 52 51 48 45 43 42 41 40 40 41 40 38 37 37 39 41 43 45 46
16 15 16 16 18 19 17 14 17 20 21 21 24 26 26 28 30 30 30 28 25 20 11 8 13 16 18 20 18 18 19 19 20 20 20 21 23 23 23 23 22 22 23 23 24 25 30 39 48 53 54 54 53 50 47 46 45 45 45 47 47 47 48 49 51 52 52 51 50 47 45 43 41 41 42 42 42 42 40 40 40 40 40 41 43 44 44
19 19 20 17 17 20 21 18 17 18 18 18 20 23 24 25 28 29 28 27 27 25 14 5 15 16 19 22 21 20 19 20 22 23 23 24 25 25 24 24 23 22 22 23 26 27 30 38 49 54 54 54 54 51 48 46 45 44 45 46 46 47 48 48 49 50 49 48 47 45 43 42 42 42 42 42 41 40 39 40 41 41 42 43 44 44 43
18 20 22 19 16 17 20 20 18 19 19 17 17 21 22 23 24 26 26 24 23 25 19 2 16 18 19 23 23 20 19 19 22 25 25 26 28 27 25 22 20 20 21 21 24 27 29 35 46 53 55 54 54 53 51 48 45 44 45 45 45 45 46 46 46 47 48 48 47 45 43 42 42 42 42 42 40 39 40 41 42 42 43 44 44 44 44
18 20 23 22 18 17 19 19 17 16 15 14 16 21 22 21 22 24 25 23 20 22 19 3 14 17 19 23 23 21 19 20 21 23 24 25 25 26 24 20 19 20 21 20 21 23 26 31 39 48 54 56 55 55 53 51 48 45 45 45 44 44 45 44 44 45 47 47 46 44 42 41 41 42 43 43 41 40 41 43 43 43 43 42 41 41 42
19 20 23 23 21 19 17 18 18 14 12 12 15 19 20 20 22 24 25 24 20 19 18 8 9 17 21 23 22 20 19 18 19 20 22 24 23 23 24 23 21 22 23 21 20 21 23 27 32 39 48 54 56 56 55 53 50 48 47 45 45 44 44 43 43 44 44 44 43 42 42 42 42 43 44 44 42 42 43 44 43 44 44 43 40 39 40
20 21 23 24 23 21 18 18 18 14 11 12 13 15 18 21 22 22 24 24 21 17 17 13 4 11 20 23 22 21 20 19 18 18 22 26 25 24 25 25 24 25 24 21 19 19 21 24 28 33 40 47 50 53 55 55 53 51 49 47 46 45 45 44 44 45 44 43 43 43 43 43 43 44 45 45 45 45 44 44 44 44 43 42 42 41 40
20 20 22 24 23 21 20 19 18 15 12 12 11 12 17 21 20 19 21 22 19 16 16 16 11 4 16 21 21 21 21 20 18 18 21 24 26 26 28 26 23 24 25 22 19 19 20 23 27 30 35 40 42 44 49 53 53 52 51 50 48 48 48 47 47 47 47 46 45 44 44 44 45 45 46 47 47 46 45 44 45 45 42 42 42 42 41
22 19 20 22 22 20 19 19 18 16 14 14 13 14 16 18 16 16 18 20 18 16 15 14 11 3 9 15 18 20 20 20 19 18 18 21 24 26 28 27 24 24 24 23 21 20 21 24 27 29 33 39 42 44 47 51 53 54 53 53 52 52 52 52 52 51 50 49 48 48 48 48 49 49 49 49 48 47 45 45 45 45 44 43 42 41 41
26 22 19 19 19 19 19 19 19 18 17 17 17 16 17 18 17 16 16 17 18 18 15 12 9 6 1 7 11 13 16 19 19 18 18 19 22 25 27 28 27 26 25 24 23 22 22 24 28 30 32 37 43 49 52 54 56 56 56 57 56 56 56 56 56 56 55 55 55 54 54 54 54 54 53 50 48 46 45 45 45 46 46 44 43 41 39
28 25 22 20 20 19 18 18 19 19 20 20 20 20 19 19 18 17 16 15 16 17 16 11 7 7 5 1 1 3 7 13 13 13 18 23 23 24 26 26 26 26 26 25 24 23 23 24 27 30 32 34 39 45 50 53 56 57 58 58 59 59 60 61 61 61 60 60 59 59 58 58 58 56 53 50 47 46 46 45 45 46 45 43 42 41 39
30 28 25 23 23 23 22 21 19 18 19 20 22 22 21 19 17 17 16 15 14 14 15 12 9 6 5 3 4 3 2 7 7 9 16 22 22 22 23 23 23 23 23 22 23 23 23 24 25 27 30 33 35 38 42 45 49 51 53 54 55 57 59 60 60 61 60 60 59 59 58 58 58 55 52 49 47 46 44 43 44 45 44 42 42 41 40
31 30 27 25 24 26 27 26 23 19 18 19 21 21 19 18 17 16 16 15 14 13 13 13 11 8 4 2 2 2 4 8 5 5 12 18 20 21 21 20 21 22 23 22 23 22 23 24 25 26 29 32 34 35 36 37 39 40 41 42 44 46 48 51 53 55 56 56 56 55 54 53 52 50 48 46 45 44 43 43 44 44 42 40 41 42 42
29 30 29 27 25 26 27 28 27 24 21 20 20 20 20 19 18 16 15 15 14 13 13 12 11 10 7 4 4 4 6 9 8 7 11 16 19 20 20 18 18 19 20 21 22 22 23 24 25 25 27 30 32 32 31 31 31 31 30 30 31 33 35 37 41 44 47 49 51 51 50 49 47 45 44 43 42 42 42 42 42 41 40 40 41 42 43
26 27 29 28 27 26 26 27 28 29 26 23 21 20 20 19 17 15 14 14 14 13 13 12 11 10 10 9 7 7 8 9 9 9 12 15 16 16 18 20 18 16 17 20 22 23 24 25 25 24 24 27 29 30 30 29 29 28 27 27 27 28 28 28 29 32 35 38 41 42 42 42 41 40 40 40 40 41 41 42 42 42 42 43 43 41 41
24 24 26 27 27 27 26 26 27 29 30 28 26 23 20 19 18 17 15 14 13 14 14 13 12 11 11 11 11 11 9 9 9 9 11 14 15 15 16 19 20 19 18 19 21 23 24 24 24 24 23 24 26 28 29 30 30 30 29 28 28 29 29 28 28 28 29 31 33 34 36 37 38 38 38 39 40 42 42 42 43 44 43 44 44 44 43
24 24 24 25 26 26 27 27 27 28 30 30 30 27 23 19 18 19 19 17 15 16 17 17 16 15 14 13 13 13 13 11 10 10 11 13 15 16 16 16 17 18 19 19 20 22 23 23 23 23 23 23 24 25 27 29 30 32 33 33 32 31 31 30 30 31 31 32 32 33 34 36 37 39 40 41 43 44 44 45 45 44 41 42 44 44 43
24 24 24 24 24 24 25 26 26 27 28 29 29 29 27 23 21 20 21 21 20 19 20 21 20 19 17 16 15 14 14 14 13 13 13 13 14 17 19 19 18 18 20 20 20 20 20 21 22 22 21 21 22 23 24 25 28 31 33 34 35 35 34 33 34 34 34 35 35 35 37 39 41 43 44 45 45 45 46 46 44 41 41 42 43 42 40
26 25 25 25 25 24 23 24 24 26 27 28 29 29 29 28 26 24 22 22 21 20 20 20 21 21 19 18 17 16 15 15 15 15 16 16 15 16 18 19 18 17 19 21 22 21 20 20 21 22 21 20 20 21 21 21 23 26 28 30 32 33 34 35 36 37 37 38 38 39 40 41 42 44 45 44 44 44 45 43 41 41 44 45 43 39 37
28 27 26 26 25 25 24 24 24 24 26 28 29 30 31 31 31 30 27 24 22 20 20 20 20 21 20 19 18 18 17 16 16 16 17 17 17 17 18 18 17 16 17 20 22 23 22 21 22 22 22 21 20 19 18 18 19 19 21 24 26 28 29 30 31 32 33 34 37 41 44 42 40 41 43 41 40 40 41 41 41 42 41 38 35 33 33
30 30 29 28 27 26 26 25 25 25 25 27 28 30 31 32 33 32 31 28 25 22 21 21 20 20 20 20 20 20 19 18 18 17 17 18 19 19 19 19 18 17 17 17 19 21 23 23 23 24 24 23 22 20 18 18 18 16 16 18 21 23 26 25 23 23 25 24 24 29 35 37 36 37 39 37 35 33 34 35 35 33 32 31 30 30 30
32 31 31 31 29 28 27 27 26 26 26 27 27 28 30 31 32 33 33 32 29 26 24 23 21 19 18 19 20 21 21 20 20 19 19 19 19 20 20 20 20 19 18 18 17 18 19 21 22 24 26 26 25 24 22 21 19 17 15 15 16 18 21 21 19 18 20 20 18 19 23 25 26 28 29 29 29 28 28 29 29 28 29 30 30 30 30
34 33 33 33 32 31 30 30 29 28 27 27 27 28 28 29 31 32 33 34 32 30 29 27 24 21 18 18 19 20 21 21 21 21 21 20 20 20 21 21 21 21 20 19 19 18 18 18 19 22 24 25 26 26 25 24 23 20 18 17 16 16 17 17 16 16 17 17 17 17 18 17 17 18 19 20 21 22 23 24 25 27 27 28 28 29 29
35 35 35 35 34 33 32 31 31 31 30 29 28 28 28 28 29 30 32 33 34 33 32 32 30 26 23 21 20 21 22 23 23 22 22 21 21 21 21 22 22 21 21 20 20 20 20 20 20 20 21 22 23 23 24 24 25 24 22 21 20 19 17 16 15 15 15 16 17 18 19 18 18 18 19 20 21 22 23 24 25 26 27 29 29 30 30
35 35 36 36 36 36 35 33 32 33 32 32 30 29 29 29 29 29 30 32 34 35 35 35 33 31 29 26 24 22 21 22 23 23 23 23 22 22 22 21 22 22 22 21 20 20 21 22 22 22 22 22 22 22 22 23 23 24 24 24 24 23 22 20 18 16 16 16 18 19 20 20 20 20 21 23 24 25 25 26 27 28 29 29 30 30 30
34 34 35 35 36 36 36 36 35 34 34 33 32 31 30 30 30 29 30 31 33 36 37 37 35 33 32 30 28 25 22 22 22 24 24 25 25 24 23 22 22 22 22 22 22 21 21 21 22 23 24 23 23 23 23 23 23 23 24 25 25 24 24 24 23 22 21 20 20 21 21 21 21 21 23 24 25 26 26 27 27 28 28 29 30 30 31
33 33 34 34 34 35 36 36 37 36 36 35 34 33 32 31 30 30 30 31 33 35 37 38 37 35 33 32 32 30 29 27 26 25 26 26 27 26 25 24 23 23 22 23 23 23 22 22 21 22 23 24 25 25 25 25 25 25 24 25 25 25 24 24 24 25 25 26 26 25 24 24 23 23 24 25 25 26 27 27 28 29 29 30 31 32 32
32 32 32 33 33 33 34 35 36 37 38 37 37 36 35 34 32 31 31 31 32 34 36 38 39 38 36 34 34 34 33 31 29 26 26 27 28 28 26 25 24 24 23 23 23 23 23 23 23 22 23 23 24 25 26 27 27 27 27 26 26 26 26 26 25 25 26 26 27 27 27 27 26 26 26 27 27 28 29 29 30 31 32 33 34 35 35
31 31 31 31 32 32 33 33 34 36 37 38 38 38 37 36 35 33 32 32 32 33 35 37 39 40 39 38 37 36 34 33 31 29 27 27 26 26 26 25 25 24 24 24 23 23 24 24 24 24 24 23 24 25 26 27 28 29 29 29 29 29 29 28 28 27 27 28 28 28 28 28 28 28 28 28 29 30 31 32 32 33 34 35 36 37 37
30 30 30 31 31 31 31 32 33 34 35 37 38 39 39 38 37 36 35 34 34 34 34 36 38 39 40 41 40 37 35 34 34 33 33 31 29 28 27 26 26 25 25 25 24 24 24 24 24 25 25 25 24 25 25 26 27 28 29 29 30 30 30 31 30 30 30 30 30 30 30 30 31 31 31 30 31 31 32 33 34 35 36 36 37 37 37
30 30 30 31 31 31 31 31 31 32 33 35 36 38 39 39 39 39 38 37 36 35 35 36 37 38 40 41 40 38 35 35 35 35 36 36 36 35 33 32 30 29 28 27 26 25 24 24 24 24 25 25 26 26 26 26 27 28 28 28 29 29 30 31 31 31 32 32 33 33 33 33 33 33 33 33 34 34 34 34 35 35 36 36 36 36 36
30 30 31 31 31 31 31 30 30 31 32 33 34 36 37 39 39 39 39 39 39 38 37 36 37 38 39 40 40 38 36 36 36 36 36 36 36 36 35 34 33 32 31 30 29 28 26 25 24 24 24 25 25 26 26 26 27 27 27 27 27 27 28 30 31 31 32 33 33 33 33 34 35 36 36 37 37 37 37 37 37 37 37 36 37 37 37
31 31 31 31 31 31 31 31 30 30 31 31 32 34 35 37 39 39 40 40 40 39 38 37 38 39 40 41 41 39 37 36 36 36 36 36 35 35 35 34 34 34 34 33 32 31 30 29 28 26 25 25 25 25 25 26 26 27 26 26 26 26 27 29 30 31 31 31 31 32 32 34 35 37 37 37 38 39 39 39 39 39 39 39 39 39 39
33 33 32 32 32 32 31 31 31 30 30 30 31 32 33 35 37 38 39 39 40 40 39 39 39 40 41 42 42 41 38 35 34 34 35 34 34 34 35 34 34 34 34 34 34 34 34 33 32 30 29 27 27 27 26 26 26 26 26 26 27 27 28 29 30 30 29 29 30 31 31 33 34 34 35 35 35 36 37 37 37 38 39 39 40 40 40
34 34 34 34 34 33 32 32 31 31 31 30 30 30 31 33 35 36 37 38 39 40 40 40 40 40 41 42 43 42 39 37 36 35 33 31 31 31 32 31 31 31 32 32 33 33 34 34 34 33 32 30 29 29 29 29 28 28 28 28 28 29 30 30 31 31 31 31 31 32 32 32 33 33 33 33 33 33 34 34 35 35 36 37 38 39 39
Wind_Direction
341 344 351 347 340 340 340 334 327 311 296 284 278 283 281 268 267 272 264 256 253 243 232 228 223 219 215 212 211 212 213 214 217 220 222 224 226 225 225 227 227 227 226 224 223 223 222 221 220 220 220 220 221 222 223 223 223 223 222 222 222 224 225 225 226 226 226 225 225 226 228 231 238 243 248 253 256 257 259 260 261 261 260 258 257 256 257
347 338 344 342 335 336 337 334 338 333 313 294 285 288 282 274 283 287 269 260 253 239 231 230 227 222 215 211 211 212 213 213 211 213 217 221 224 224 224 226 228 227 226 224 223 223 222 221 220 219 219 219 220 221 222 222 223 223 223 222 223 225 226 226 226 225 222 221 222 225 228 231 237 243 248 252 254 255 257 258 259 260 259 258 257 257 257
2 347 344 343 338 338 335 331 338 343 334 316 296 289 281 281 293 284 262 267 262 225 216 223 227 224 217 212 212 213 213 212 210 212 214 216 221 223 222 225 228 228 226 224 222 222 221 220 220 219 219 219 219 220 221 222 223 224 224 223 224 226 226 226 225 223 220 219 221 224 227 230 236 242 246 250 252 253 257 258 258 259 259 258 257 256 256
13 6 3 358 347 337 332 332 335 332 329 328 314 297 291 294 295 282 273 276 256 200 208 212 217 221 218 213 213 214 214 213 211 212 212 212 218 221 219 221 226 227 226 224 222 221 220 219 220 219 218 218 219 220 220 221 222 223 224 224 224 226 227 226 225 221 218 218 220 223 226 230 235 240 245 248 250 253 258 259 258 258 259 258 257 256 255
14 15 16 17 7 355 355 357 351 335 321 319 321 315 310 309 300 289 283 241 183 194 208 206 207 214 216 214 214 215 215 213 211 211 212 214 217 219 219 222 226 225 224 224 222 220 219 218 218 218 217 217 217 218 219 220 221 222 224 224 224 225 226 227 225 221 217 217 220 223 226 230 234 239 243 246 249 254 258 257 256 257 258 257 256 254 254
4 8 15 21 21 18 15 11 9 3 348 331 325 318 309 306 307 305 277 203 198 203 208 207 207 212 216 215 215 215 215 214 212 211 212 215 219 219 220 225 229 225 223 224 223 221 218 217 216 216 216 216 215 216 217 218 220 221 223 224 225 225 226 226 224 220 217 217 220 223 226 230 234 238 242 246 249 252 255 255 254 255 256 256 255 254 253
353 358 6 13 16 15 13 11 11 11 9 2 355 346 324 300 296 299 261 211 212 211 210 215 218 219 221 218 216 216 216 215 213 212 212 215 219 219 219 226 232 228 224 225 224 221 218 216 215 215 215 215 215 214 215 217 219 220 222 224 225 224 224 224 223 220 218 219 221 223 226 230 234 238 242 245 248 251 253 252 252 253 254 255 255 254 253
348 354 1 6 6 5 7 9 7 7 9 9 8 9 3 346 326 312 258 219 225 221 211 214 223 225 223 218 216 216 218 217 215 213 212 215 219 218 217 225 233 231 227 226 225 222 218 215 215 215 214 215 215 214 214 216 218 220 221 223 225 224 223 223 221 219 218 220 222 224 226 230 234 238 242 245 248 250 251 250 249 251 253 254 254 254 253
346 350 356 360 2 2 4 5 3 3 5 4 3 10 14 9 360 347 312 235 220 219 215 215 220 221 220 217 217 221 226 224 218 215 214 215 218 218 219 226 234 232 229 228 227 223 219 215 214 214 213 213 214 214 214 216 218 219 220 222 224 224 223 223 222 220 219 221 223 225 228 230 234 238 242 245 247 248 248 248 248 250 253 254 253 253 253
343 347 350 355 0 1 360 359 358 358 360 0 1 6 12 12 8 359 344 275 222 215 217 218 215 217 220 217 216 226 234 232 225 220 217 217 218 217 218 226 234 233 231 231 229 225 220 215 214 214 212 211 212 213 213 215 218 219 220 221 223 224 224 224 224 223 222 223 226 227 228 231 234 238 241 243 245 245 246 247 247 249 252 253 253 253 254
339 345 346 349 352 353 354 355 354 354 356 357 359 4 9 10 7 2 358 342 283 236 221 218 219 224 226 218 217 229 236 236 233 226 220 219 219 216 218 227 236 237 234 233 231 226 220 215 214 212 210 209 210 211 212 214 217 219 219 221 223 224 225 225 224 224 224 226 228 228 228 231 235 238 240 241 243 244 245 246 246 248 251 253 254 255 255
334 340 340 341 340 342 348 351 349 351 354 355 0 5 7 6 1 357 359 360 348 315 237 223 225 230 227 216 220 233 239 240 237 230 222 219 217 217 222 229 235 238 237 236 234 226 218 214 212 210 207 206 207 209 210 212 216 217 219 221 223 224 225 225 224 224 225 228 229 228 229 232 235 237 237 239 241 244 246 247 248 249 252 255 257 257 258
326 330 332 336 333 332 342 348 346 348 354 358 5 5 1 0 0 353 347 348 348 340 265 225 225 226 217 209 216 229 235 237 237 231 222 215 213 218 225 226 229 234 236 237 236 227 217 213 211 207 205 205 205 206 207 210 213 215 217 219 222 223 223 224 224 225 226 228 228 228 229 232 234 234 236 238 241 244 247 249 249 251 254 258 260 260 260
319 323 327 330 326 327 340 348 345 346 354 1 5 1 355 357 359 347 333 336 338 332 288 226 220 219 210 206 213 223 227 227 229 228 221 214 213 221 225 224 226 231 234 236 236 228 218 213 210 206 203 202 203 204 205 208 211 214 215 218 221 222 222 222 223 224 225 225 226 227 230 231 232 233 235 237 240 245 249 252 253 254 256 259 262 263 263
316 323 326 325 322 327 339 345 345 349 356 358 358 357 356 359 359 347 328 332 327 311 285 235 218 214 208 206 212 221 223 220 219 220 216 214 217 225 228 227 228 229 232 235 234 228 221 215 210 206 202 200 200 202 204 207 211 213 215 217 220 222 222 221 221 221 222 223 225 228 230 231 232 234 236 238 242 247 253 257 258 258 258 260 262 265 266
320 328 334 334 329 329 337 344 345 349 353 352 351 352 356 1 3 357 342 345 346 318 295 256 224 215 209 209 217 225 226 221 216 212 209 211 217 225 228 229 231 233 235 237 232 227 222 216 210 206 201 199 200 202 205 208 211 213 215 218 220 222 221 219 218 218 219 222 225 228 230 232 234 235 236 238 242 249 255 259 260 259 257 258 260 263 265
320 330 334 329 321 318 329 340 339 339 348 350 345 343 350 0 5 4 357 357 359 337 309 271 226 215 212 214 223 229 227 222 217 212 208 208 215 222 227 230 234 233 234 234 230 226 221 215 210 206 203 201 202 204 206 208 212 214 216 219 221 221 220 218 216 217 219 222 225 228 231 233 235 236 237 239 243 248 253 259 262 260 258 258 259 261 263
301 311 314 311 307 306 315 331 333 336 345 348 338 335 345 358 3 4 5 4 358 342 313 262 215 209 213 217 222 224 220 218 215 210 207 208 212 219 224 229 230 226 224 225 224 223 222 216 210 207 206 205 205 206 207 209 212 214 217 219 220 220 219 217 217 218 220 223 227 230 233 235 237 237 239 241 244 248 252 259 264 264 262 261 262 264 265
290 288 291 295 300 301 304 316 330 336 342 340 332 332 344 357 0 2 7 8 4 359 336 248 206 200 208 215 219 221 216 211 207 202 198 201 206 212 221 227 225 218 215 215 214 216 220 217 211 208 209 209 208 208 209 211 213 215 216 219 220 219 218 218 219 221 223 226 229 232 234 236 237 238 240 243 246 250 254 259 264 265 264 264 266 267 267
293 286 286 293 301 304 307 312 320 330 335 333 329 329 338 352 357 360 6 8 8 13 10 233 204 200 205 209 213 219 217 211 208 203 198 197 200 205 215 222 219 212 209 210 210 210 214 216 213 211 212 212 211 210 212 213 214 215 216 218 219 219 219 220 220 222 224 225 227 229 231 234 236 239 242 246 250 253 255 259 263 267 269 269 268 267 265
291 283 283 288 291 291 294 297 305 322 329 325 326 330 333 341 347 354 4 10 13 22 28 173 201 201 204 206 207 211 212 212 212 210 207 207 207 209 213 214 208 207 209 209 209 207 209 213 214 213 214 216 215 214 216 216 217 217 217 217 218 219 220 220 221 221 223 224 226 229 232 235 239 243 247 249 251 252 254 258 262 268 273 273 270 266 262
293 282 280 282 277 269 270 272 281 309 323 318 323 331 331 333 339 346 357 5 12 24 34 82 200 202 203 204 204 204 206 210 212 210 208 207 208 210 212 206 199 203 208 209 210 209 208 212 214 215 217 220 220 220 220 220 219 220 220 219 219 221 221 221 221 222 224 226 228 231 234 238 241 245 249 250 250 251 254 258 262 269 274 272 268 264 260
297 286 280 279 276 272 272 271 278 298 312 305 313 326 328 332 339 342 347 354 3 20 36 61 189 205 208 206 205 207 208 209 212 212 206 202 203 207 207 202 197 201 203 203 206 210 210 212 214 215 217 220 222 224 225 225 224 223 222 221 221 222 223 223 223 224 226 228 230 233 237 240 243 246 249 251 251 252 255 260 266 272 272 267 263 262 259
302 294 287 282 278 276 278 280 281 290 296 288 296 318 330 333 335 335 336 343 354 9 24 39 88 202 211 211 211 215 218 218 220 216 205 199 199 202 203 202 200 199 197 195 198 204 209 212 215 217 218 219 221 224 226 227 226 225 225 225 225 225 225 225 225 226 228 230 232 236 239 242 246 249 251 252 253 254 257 263 270 272 268 261 258 259 258
307 299 290 287 284 279 280 284 285 286 289 290 297 319 329 328 329 331 332 336 348 2 12 24 39 173 211 216 217 219 221 221 219 215 211 208 205 199 197 200 205 203 197 195 199 205 209 213 216 219 219 221 222 223 223 225 227 227 228 229 230 229 229 229 229 230 231 233 235 238 242 245 249 252 253 253 255 256 258 263 269 269 262 257 257 258 257
309 302 290 287 291 290 286 286 287 288 295 302 305 312 318 318 321 329 329 328 337 352 5 20 36 78 205 217 220 220 221 219 213 211 217 221 218 212 204 200 202 206 205 204 205 207 209 212 216 218 220 221 223 224 224 225 228 230 230 231 232 233 234 235 235 235 236 237 239 242 245 248 250 251 253 254 255 256 258 262 265 262 257 256 256 256 256
304 301 289 281 287 295 295 293 291 291 293 295 295 299 308 314 317 320 323 324 329 337 348 5 24 37 122 196 200 202 209 215 217 221 227 225 220 221 217 205 198 200 204 204 204 206 208 209 212 215 218 218 220 222 224 227 229 231 232 232 233 235 236 237 238 239 239 240 241 243 245 248 250 251 253 254 254 255 258 259 258 255 254 255 256 255 256
299 297 289 275 268 271 281 289 292 292 292 289 284 284 291 300 306 307 311 316 319 323 329 336 353 15 20 315 216 140 173 186 186 199 219 223 219 221 225 219 209 204 203 201 202 205 207 208 209 212 214 215 216 218 222 226 230 232 234 235 236 237 238 239 239 240 240 241 241 242 244 246 247 249 251 251 252 253 254 253 252 253 254 255 257 258 259
296 294 290 280 268 261 264 273 283 289 291 288 282 279 281 288 295 298 300 304 306 310 317 316 316 343 1 315 311 344 186 182 160 168 203 216 218 221 227 228 223 219 218 216 214 214 214 213 212 211 211 211 211 213 216 220 225 229 232 234 236 237 238 240 241 241 242 242 242 242 242 243 245 246 248 249 250 250 249 248 249 252 253 255 257 259 260
297 294 290 285 276 267 263 266 272 280 287 288 285 282 281 283 286 286 288 293 294 294 301 304 298 301 311 289 293 301 214 206 207 202 205 209 214 220 226 228 227 227 228 227 226 226 224 222 219 215 213 211 211 212 214 216 219 222 225 227 230 232 234 237 239 240 241 241 241 241 240 241 242 244 245 246 245 245 244 245 248 252 256 258 260 260 258
295 294 291 288 282 274 268 266 266 269 276 283 285 282 278 278 281 280 279 284 287 285 288 294 292 288 285 276 273 265 225 211 217 223 214 212 215 217 216 215 218 222 222 220 221 224 226 227 226 223 218 216 215 216 217 217 217 218 219 222 225 228 230 233 235 237 237 238 238 238 238 238 239 240 240 240 240 241 243 247 251 255 259 261 261 260 258
290 289 289 287 285 280 274 269 267 266 269 275 281 281 276 272 273 274 274 279 284 283 281 282 283 283 283 278 271 261 239 229 237 238 223 218 222 224 220 219 224 228 224 218 216 218 224 230 232 230 225 222 222 223 223 222 221 219 218 221 224 227 228 230 231 231 232 232 232 232 232 232 232 232 233 235 239 242 246 249 253 255 257 258 258 256 253
286 285 284 284 284 282 278 273 268 266 266 268 272 276 275 269 264 262 263 269 278 285 285 281 276 276 278 278 277 275 261 245 246 248 236 226 227 233 236 236 235 234 231 224 219 219 222 226 231 232 231 230 230 232 233 233 229 225 224 225 226 227 227 228 227 226 226 225 224 224 225 226 229 231 234 237 242 245 249 252 255 257 256 254 252 248 245
286 283 281 279 278 279 278 275 271 268 265 265 266 268 270 268 263 259 260 264 272 282 286 283 278 275 276 276 277 279 276 266 258 256 250 239 232 234 240 240 236 233 233 230 224 221 221 223 226 229 231 233 234 236 239 239 236 233 231 231 232 232 231 230 230 230 229 227 225 224 225 228 231 235 237 239 243 247 250 254 257 256 252 247 243 239 236
289 286 284 281 278 275 273 272 270 268 266 264 263 263 265 265 264 262 263 267 271 275 279 280 277 275 275 276 274 271 271 270 264 258 254 249 242 239 239 240 238 236 236 235 233 228 224 222 223 225 227 228 229 231 233 235 235 234 234 234 236 238 238 238 238 236 234 232 230 230 230 232 235 238 239 241 245 249 252 254 254 248 240 235 233 231 230
291 287 285 283 281 278 274 270 267 265 262 261 260 260 261 263 265 267 268 271 272 271 272 275 276 274 272 273 272 269 265 262 260 258 255 254 251 247 243 242 243 241 238 237 239 238 232 227 225 225 224 223 222 223 225 226 227 230 232 233 235 238 239 241 242 243 243 242 241 239 238 238 239 241 243 244 245 246 247 246 242 234 227 225 226 227 227
292 289 286 283 281 279 277 272 267 262 259 256 255 255 256 257 260 262 264 267 268 266 263 264 268 269 268 267 267 267 265 261 256 253 253 253 253 251 249 249 251 249 243 240 240 240 239 235 230 227 228 226 221 219 220 218 216 219 223 224 226 230 231 232 235 238 239 239 240 240 240 239 239 241 241 239 236 234 232 229 226 222 220 220 222 223 223
291 289 287 284 281 279 276 273 270 265 260 256 253 251 251 252 254 256 257 258 259 258 256 257 259 261 262 262 261 261 262 262 259 254 252 251 251 252 252 251 250 249 247 243 241 240 240 238 233 231 232 231 225 219 217 214 210 208 208 209 214 220 223 223 222 221 218 216 217 220 220 218 217 220 222 219 215 213 213 213 213 212 212 213 216 218 219
290 288 287 285 282 279 276 273 270 268 265 261 257 252 248 247 248 251 252 253 253 251 249 249 252 254 256 259 260 258 258 259 259 257 255 252 250 251 252 252 250 248 247 245 243 240 239 239 235 233 234 234 231 227 226 223 216 210 205 201 202 209 215 218 218 217 216 214 210 205 201 195 192 193 194 194 193 194 197 201 204 205 207 210 214 217 220
288 287 286 285 283 281 279 276 272 269 266 264 262 258 253 248 245 245 246 248 248 246 245 246 248 250 252 255 257 257 256 255 256 256 256 256 253 251 250 251 251 251 249 247 245 242 240 239 237 234 235 237 237 237 237 236 231 226 221 214 206 203 205 210 218 224 225 223 222 218 214 210 205 200 196 195 197 200 202 204 204 204 208 212 216 220 225
287 286 284 282 281 279 278 276 275 272 269 265 263 261 258 254 249 244 242 242 242 242 243 245 248 250 252 255 258 258 256 255 254 254 254 255 256 255 253 251 250 250 250 248 246 244 243 242 240 236 235 236 238 239 240 239 238 238 237 233 227 221 214 211 214 220 223 226 230 231 228 224 223 221 221 221 223 225 226 226 224 222 222 224 227 230 234
288 285 282 280 278 276 274 273 272 272 271 269 266 263 260 257 254 248 243 241 240 240 241 243 246 249 251 253 256 256 254 254 255 255 255 254 255 256 255 253 251 250 249 248 247 245 244 243 243 241 238 236 236 238 238 238 239 240 242 242 240 238 234 229 226 224 223 226 234 239 239 236 233 232 231 232 234 235 235 236 236 235 235 235 237 240 241
292 288 284 280 277 275 273 270 269 268 268 268 267 265 262 259 257 253 247 243 240 240 240 241 243 246 248 249 250 249 248 251 257 259 258 256 254 253 254 254 253 252 251 249 247 246 245 243 243 243 242 240 237 236 236 236 237 239 242 244 245 245 243 240 238 237 235 235 237 240 242 241 239 237 235 235 236 237 237 238 239 239 239 240 242 243 245
296 292 289 285 280 277 274 270 268 266 264 263 263 263 262 260 258 256 252 247 242 240 240 241 243 244 245 245 246 247 248 253 260 263 261 258 255 253 252 253 253 253 252 250 249 248 246 245 243 243 243 243 242 240 238 237 237 238 240 243 246 247 247 246 243 242 241 242 244 247 249 250 248 245 243 242 241 241 242 243 244 245 246 247 248 249 251
300 297 294 290 286 281 277 273 269 266 264 262 260 260 259 258 256 255 254 251 247 242 240 241 242 243 244 244 244 246 248 253 257 260 259 257 254 253 252 252 252 252 253 252 251 250 248 247 246 244 242 242 242 242 242 241 241 240 241 242 244 246 247 248 247 245 244 243 244 246 249 250 250 249 249 248 248 248 247 247 247 248 248 249 250 251 252
305 303 300 296 292 287 282 277 272 268 265 262 260 258 257 256 255 253 252 252 250 246 243 241 241 242 243 243 243 244 246 248 251 253 254 254 252 252 252 252 251 250 251 251 251 251 250 249 248 246 245 243 242 241 242 242 243 243 243 243 244 245 246 247 247 246 246 245 245 245 245 246 247 248 248 248 249 249 249 250 250 251 251 252 253 253 254
310 308 306 302 298 294 289 283 278 272 267 263 260 258 257 255 254 253 251 250 249 247 245 242 241 241 242 243 244 243 244 245 246 247 248 249 251 253 254 255 254 252 250 249 249 249 249 248 248 247 246 245 243 242 241 241 242 243 244 244 245 245 246 247 247 247 247 247 247 246 246 246 246 247 247 248 249 249 250 251 252 253 253 254 255 256 257
315 313 311 308 305 301 296 291 285 279 272 266 262 259 256 254 253 252 251 249 248 246 244 243 241 240 240 242 243 242 241 242 244 245 247 249 251 254 256 257 257 255 252 250 249 248 247 246 246 246 246 246 245 244 243 242 241 242 243 243 244 245 246 247 247 247 247 247 247 248 248 249 249 249 249 249 249 249 250 251 252 253 254 255 256 256 257
317 316 314 312 309 306 302 298 292 286 280 273 266 261 257 254 252 250 249 248 247 245 243 241 240 239 239 240 241 240 239 239 242 245 247 249 251 253 254 254 255 254 253 251 251 250 249 247 246 245 245 245 246 246 245 244 243 242 242 242 242 242 243 245 245 245 245 246 247 247 247 248 249 250 250 249 249 249 249 250 251 252 254 255 255 256 256
319 318 317 315 313 310 307 304 299 294 287 281 273 266 260 255 252 250 248 247 246 245 242 240 238 237 236 237 238 238 237 238 240 244 248 250 252 253 252 252 252 252 252 251 251 250 250 250 249 247 246 246 246 247 247 247 246 246 245 243 242 242 242 242 244 245 245 246 247 247 247 247 248 249 249 250 250 250 250 251 251 253 254 254 255 256 256
321 320 320 318 317 314 312 309 305 301 295 288 280 273 265 259 254 250 248 245 244 244 242 239 237 235 234 234 235 235 234 234 237 241 245 248 250 251 250 250 249 249 249 250 249 249 249 249 249 249 249 249 249 249 249 249 249 248 247 246 245 245 245 246 247 247 247 246 246 247 248 249 249 250 251 251 252 252 252 253 254 255 256 257 257 258 259
322 322 321 320 319 317 315 312 309 306 301 295 287 279 271 263 257 252 248 245 243 242 241 239 237 235 233 233 233 233 231 230 230 233 236 240 242 244 244 244 244 244 244 244 245 246 246 246 247 248 249 250 251 250 250 250 250 249 249 248 247 246 247 248 250 251 250 248 247 247 249 250 251 253 253 254 254 255 255 255 255 254 255 256 257 259 260
Height
5617 5615 5613 5610 5608 5606 5604 5601 5599 5597 5596 5595 5594 5592 5592 5591 5588 5587 5589 5588 5587 5589 5592 5593 5593 5594 5596 5599 5602 5604 5607 5611 5615 5618 5622 5625 5628 5632 5635 5638 5641 5645 5648 5653 5658 5663 5668 5674 5680 5685 5690 5696 5701 5706 5710 5716 5720 5724 5727 5731 5735 5739 5742 5746 5749 5753 5757 5759 5761 5763 5765 5766 5767 5767 5767 5768 5770 5771 5771 5772 5773 5773 5774 5775 5776 5776 5777
5617 5614 5612 5609 5607 5605 5603 5601 5598 5596 5594 5593 5592 5591 5590 5588 5586 5585 5585 5584 5584 5585 5588 5589 5590 5590 5592 5594 5596 5599 5603 5606 5609 5612 5616 5621 5624 5628 5632 5635 5637 5640 5643 5648 5653 5657 5663 5669 5674 5679 5684 5690 5695 5699 5704 5710 5714 5718 5722 5726 5730 5733 5736 5740 5744 5748 5750 5753 5756 5758 5760 5761 5762 5762 5763 5764 5765 5767 5768 5768 5769 5769 5770 5771 5772 5772 5773
5616 5614 5611 5608 5605 5604 5602 5600 5597 5595 5593 5591 5590 5589 5588 5587 5585 5583 5582 5581 5581 5581 5583 5584 5586 5587 5589 5591 5593 5595 5599 5602 5605 5608 5613 5618 5621 5624 5628 5630 5632 5635 5638 5642 5647 5652 5658 5663 5667 5673 5679 5684 5689 5694 5699 5704 5709 5713 5716 5720 5724 5727 5730 5735 5739 5741 5744 5747 5751 5753 5755 5756 5757 5757 5758 5759 5761 5763 5764 5764 5765 5766 5766 5766 5767 5768 5769
5614 5612 5609 5607 5604 5603 5601 5599 5597 5594 5592 5590 5588 5587 5586 5585 5584 5582 5581 5580 5579 5578 5578 5580 5582 5585 5588 5591 5592 5594 5596 5600 5603 5606 5611 5614 5617 5620 5623 5626 5627 5630 5633 5637 5642 5648 5652 5657 5662 5668 5673 5678 5683 5688 5694 5699 5703 5706 5710 5715 5718 5721 5725 5729 5732 5735 5738 5742 5746 5747 5749 5751 5752 5753 5754 5755 5757 5759 5760 5760 5761 5762 5762 5762 5763 5764 5765
5614 5612 5609 5606 5604 5602 5600 5599 5597 5594 5591 5589 5587 5586 5585 5584 5583 5581 5580 5579 5578 5577 5577 5578 5580 5583 5586 5589 5590 5592 5594 5597 5600 5604 5608 5611 5613 5615 5619 5621 5623 5626 5630 5634 5638 5643 5647 5652 5657 5662 5666 5672 5677 5683 5688 5693 5697 5701 5705 5710 5712 5715 5719 5722 5725 5729 5733 5737 5740 5742 5745 5746 5747 5748 5749 5750 5753 5755 5756 5756 5757 5758 5758 5758 5759 5760 5761
5615 5612 5610 5607 5605 5602 5600 5599 5597 5594 5591 5588 5585 5584 5583 5583 5581 5580 5579 5579 5577 5577 5576 5577 5578 5580 5583 5584 5586 5588 5591 5594 5597 5601 5604 5607 5609 5612 5615 5618 5620 5623 5627 5630 5634 5638 5642 5647 5651 5656 5661 5666 5671 5676 5681 5686 5691 5695 5700 5704 5706 5710 5713 5716 5720 5724 5729 5732 5735 5738 5740 5741 5742 5743 5745 5747 5750 5751 5751 5752 5754 5754 5754 5754 5755 5756 5757
5615 5613 5610 5607 5605 5603 5601 5599 5597 5594 5591 5588 5585 5583 5581 5580 5579 5579 5578 5578 5577 5576 5576 5576 5577 5579 5580 5581 5583 5586 5589 5591 5594 5596 5600 5603 5605 5608 5612 5615 5617 5620 5623 5626 5629 5633 5637 5642 5646 5650 5655 5660 5665 5670 5675 5681 5685 5690 5694 5698 5701 5705 5708 5711 5715 5720 5724 5727 5730 5733 5735 5736 5737 5739 5740 5743 5745 5746 5747 5748 5750 5750 5750 5750 5751 5752 5753
5615 5613 5610 5607 5606 5604 5601 5598 5596 5593 5591 5588 5585 5583 5580 5578 5577 5577 5577 5577 5576 5575 5575 5575 5575 5576 5578 5579 5582 5584 5586 5588 5590 5592 5596 5600 5602 5605 5609 5612 5613 5616 5619 5622 5625 5629 5633 5637 5641 5645 5650 5655 5660 5665 5671 5676 5680 5685 5689 5693 5697 5700 5703 5706 5710 5715 5719 5721 5724 5727 5729 5731 5733 5735 5736 5739 5741 5742 5742 5744 5745 5746 5746 5746 5747 5748 5749
5615 5613 5611 5609 5606 5603 5600 5597 5594 5592 5589 5586 5583 5581 5579 5577 5576 5575 5575 5574 5573 5573 5573 5573 5573 5574 5575 5577 5581 5583 5583 5584 5586 5588 5592 5596 5599 5602 5606 5608 5610 5613 5616 5618 5621 5625 5629 5632 5636 5641 5645 5650 5656 5661 5666 5671 5675 5680 5684 5688 5692 5695 5698 5702 5706 5710 5714 5716 5719 5722 5724 5727 5729 5731 5733 5735 5737 5738 5738 5739 5740 5742 5742 5742 5742 5744 5745
5614 5612 5610 5608 5605 5602 5599 5596 5593 5591 5588 5585 5582 5579 5577 5575 5575 5574 5572 5569 5569 5569 5570 5570 5571 5572 5573 5576 5580 5580 5580 5581 5583 5586 5589 5592 5595 5599 5603 5606 5608 5610 5612 5615 5617 5621 5625 5628 5632 5636 5641 5646 5651 5657 5662 5666 5670 5675 5679 5684 5687 5691 5694 5698 5702 5706 5709 5711 5714 5717 5720 5723 5724 5727 5730 5732 5732 5733 5733 5734 5736 5738 5738 5737 5738 5739 5741
5614 5612 5609 5607 5604 5602 5599 5596 5593 5590 5587 5585 5582 5578 5575 5573 5573 5572 5570 5568 5567 5567 5568 5568 5569 5569 5571 5575 5576 5576 5576 5579 5581 5583 5586 5589 5592 5596 5600 5603 5605 5607 5609 5611 5613 5616 5620 5624 5628 5632 5637 5642 5647 5652 5657 5662 5666 5670 5675 5679 5683 5686 5689 5693 5697 5700 5703 5706 5709 5713 5716 5718 5720 5724 5726 5727 5728 5728 5729 5730 5733 5734 5733 5733 5735 5736 5737
5614 5612 5610 5607 5605 5602 5600 5597 5593 5590 5588 5585 5581 5577 5574 5574 5572 5570 5568 5568 5567 5566 5566 5567 5567 5568 5571 5573 5573 5572 5575 5577 5579 5581 5584 5587 5590 5594 5597 5599 5602 5604 5606 5608 5610 5612 5616 5620 5624 5628 5633 5638 5643 5648 5653 5657 5661 5666 5671 5674 5677 5680 5684 5687 5690 5693 5697 5701 5705 5708 5711 5714 5717 5720 5722 5722 5723 5724 5726 5727 5729 5730 5730 5730 5731 5732 5733
5613 5612 5610 5608 5606 5603 5600 5596 5592 5590 5589 5586 5582 5578 5577 5575 5573 5570 5568 5568 5567 5566 5565 5565 5566 5567 5569 5570 5569 5570 5572 5574 5576 5578 5581 5584 5588 5591 5594 5596 5599 5601 5603 5605 5607 5609 5613 5617 5620 5624 5629 5635 5639 5644 5648 5652 5657 5661 5665 5668 5671 5675 5678 5682 5685 5689 5693 5697 5701 5704 5707 5709 5712 5715 5716 5717 5719 5721 5722 5723 5725 5726 5726 5726 5727 5728 5729
5613 5611 5610 5608 5605 5602 5600 5597 5593 5590 5588 5585 5582 5580 5578 5575 5572 5570 5569 5567 5567 5566 5564 5563 5564 5564 5565 5566 5566 5567 5569 5571 5572 5575 5578 5582 5586 5589 5591 5593 5596 5598 5600 5602 5604 5606 5609 5613 5617 5621 5625 5631 5635 5639 5643 5648 5652 5655 5659 5663 5666 5670 5674 5677 5681 5685 5689 5693 5696 5699 5702 5704 5707 5710 5711 5713 5715 5717 5718 5719 5721 5722 5722 5722 5722 5723 5725
5611 5609 5607 5606 5604 5601 5598 5596 5593 5590 5588 5585 5582 5580 5578 5575 5572 5569 5567 5567 5566 5564 5563 5562 5561 5562 5563 5564 5564 5565 5566 5568 5570 5572 5576 5580 5584 5586 5589 5591 5593 5595 5597 5599 5601 5603 5606 5610 5613 5617 5622 5627 5631 5635 5639 5643 5646 5650 5654 5658 5661 5665 5670 5674 5677 5681 5685 5688 5691 5694 5697 5700 5703 5705 5706 5709 5711 5713 5714 5715 5716 5716 5717 5717 5717 5718 5719
5608 5607 5605 5604 5602 5599 5596 5593 5591 5589 5588 5586 5583 5580 5578 5576 5572 5569 5567 5566 5564 5563 5561 5560 5560 5561 5562 5563 5563 5564 5565 5567 5568 5570 5573 5577 5581 5584 5586 5588 5590 5593 5595 5596 5598 5600 5603 5606 5610 5614 5618 5623 5627 5631 5635 5638 5642 5646 5650 5654 5657 5662 5666 5670 5674 5677 5681 5684 5687 5689 5692 5695 5698 5700 5703 5705 5707 5708 5709 5709 5710 5710 5711 5712 5712 5712 5713
5607 5605 5604 5603 5601 5599 5596 5593 5591 5591 5590 5588 5584 5581 5578 5575 5572 5570 5567 5565 5563 5561 5559 5558 5559 5560 5562 5563 5563 5564 5565 5566 5567 5569 5571 5575 5578 5581 5584 5586 5588 5590 5591 5593 5595 5597 5600 5603 5607 5611 5615 5619 5623 5626 5630 5634 5638 5642 5646 5650 5654 5658 5662 5666 5670 5673 5676 5679 5681 5684 5687 5690 5693 5696 5698 5700 5701 5702 5703 5704 5704 5705 5706 5706 5707 5707 5707
5606 5605 5603 5602 5599 5597 5596 5594 5592 5590 5590 5588 5584 5581 5579 5575 5572 5570 5567 5564 5562 5560 5558 5557 5557 5559 5561 5562 5563 5563 5564 5565 5566 5568 5570 5573 5576 5579 5581 5584 5586 5587 5588 5590 5592 5594 5597 5600 5604 5608 5612 5615 5618 5622 5627 5631 5635 5639 5643 5647 5650 5654 5658 5662 5665 5668 5671 5674 5676 5680 5683 5686 5689 5691 5693 5694 5695 5697 5698 5699 5700 5701 5701 5702 5702 5701 5701
5605 5604 5603 5601 5598 5596 5595 5594 5593 5591 5590 5587 5584 5581 5578 5575 5572 5570 5567 5564 5562 5559 5556 5555 5556 5558 5559 5561 5562 5562 5563 5564 5565 5567 5569 5571 5574 5577 5579 5581 5583 5584 5586 5587 5589 5592 5594 5597 5601 5605 5608 5611 5615 5619 5624 5627 5631 5635 5639 5643 5647 5650 5654 5657 5661 5663 5666 5669 5672 5676 5679 5681 5683 5685 5687 5688 5690 5692 5694 5695 5696 5696 5697 5696 5696 5696 5696
5603 5602 5600 5599 5598 5594 5592 5591 5591 5590 5589 5587 5584 5581 5578 5575 5572 5570 5567 5564 5562 5559 5556 5554 5555 5557 5558 5559 5561 5561 5562 5563 5564 5566 5567 5568 5570 5572 5575 5578 5580 5581 5583 5584 5586 5589 5592 5595 5599 5602 5605 5608 5612 5616 5620 5624 5627 5631 5635 5639 5642 5646 5649 5652 5656 5659 5662 5665 5668 5671 5673 5675 5678 5680 5681 5683 5686 5689 5690 5691 5690 5690 5690 5690 5690 5690 5691
5601 5599 5597 5597 5597 5594 5591 5590 5589 5588 5587 5585 5583 5580 5577 5574 5572 5570 5567 5564 5562 5560 5556 5553 5554 5557 5558 5558 5560 5560 5561 5562 5563 5564 5565 5566 5567 5570 5572 5575 5577 5579 5580 5581 5583 5586 5589 5592 5596 5599 5603 5606 5609 5613 5616 5620 5624 5628 5631 5634 5637 5641 5644 5648 5651 5654 5657 5660 5662 5665 5667 5670 5672 5675 5677 5679 5681 5683 5685 5685 5684 5684 5684 5683 5683 5683 5685
5599 5597 5595 5594 5595 5594 5591 5589 5588 5587 5585 5584 5582 5579 5576 5574 5572 5569 5567 5564 5562 5560 5557 5554 5555 5556 5557 5558 5559 5559 5560 5561 5561 5563 5564 5564 5566 5570 5572 5572 5574 5576 5578 5579 5581 5584 5587 5589 5592 5596 5599 5602 5605 5609 5612 5616 5620 5624 5627 5630 5633 5636 5640 5643 5647 5649 5652 5654 5657 5660 5662 5665 5667 5670 5671 5673 5675 5677 5678 5679 5679 5679 5678 5678 5677 5678 5679
5597 5595 5593 5591 5591 5591 5590 5588 5586 5585 5584 5582 5580 5577 5575 5573 5571 5568 5566 5565 5563 5560 5557 5556 5556 5557 5557 5558 5559 5559 5560 5561 5562 5563 5564 5563 5564 5568 5570 5570 5571 5574 5576 5577 5579 5581 5584 5586 5589 5592 5595 5598 5601 5605 5608 5612 5616 5620 5623 5625 5628 5632 5636 5639 5642 5645 5647 5649 5652 5655 5657 5660 5662 5664 5666 5667 5669 5671 5672 5672 5673 5673 5673 5672 5673 5673 5674
5594 5592 5590 5588 5588 5588 5587 5585 5584 5583 5582 5581 5578 5577 5575 5573 5571 5568 5566 5564 5563 5561 5558 5557 5557 5557 5557 5558 5559 5559 5560 5561 5562 5563 5564 5564 5564 5566 5568 5569 5570 5572 5574 5575 5577 5579 5581 5583 5586 5588 5591 5595 5598 5601 5604 5608 5612 5615 5618 5621 5624 5627 5631 5634 5637 5639 5642 5644 5647 5650 5652 5655 5657 5658 5660 5661 5663 5665 5666 5666 5667 5667 5666 5667 5667 5668 5669
5592 5590 5588 5585 5585 5584 5584 5582 5581 5580 5580 5578 5576 5575 5575 5573 5571 5569 5566 5564 5562 5561 5559 5558 5557 5556 5557 5558 5559 5559 5559 5560 5560 5562 5564 5564 5564 5565 5566 5567 5569 5571 5572 5573 5575 5577 5578 5580 5582 5584 5587 5590 5594 5596 5600 5603 5607 5611 5614 5617 5619 5622 5626 5629 5631 5634 5637 5639 5642 5644 5647 5649 5651 5652 5654 5655 5657 5658 5660 5660 5660 5660 5660 5661 5662 5662 5663
5588 5588 5586 5583 5582 5581 5580 5579 5579 5578 5577 5576 5574 5573 5573 5571 5569 5568 5566 5563 5562 5561 5560 5559 5558 5557 5557 5557 5558 5558 5558 5558 5559 5561 5562 5563 5564 5565 5565 5565 5567 5569 5571 5572 5573 5574 5576 5577 5579 5581 5583 5586 5589 5592 5595 5598 5602 5605 5609 5612 5615 5617 5620 5623 5626 5629 5632 5634 5637 5639 5641 5642 5644 5646 5648 5649 5650 5652 5654 5655 5654 5654 5655 5655 5656 5657 5658
5584 5584 5584 5583 5580 5578 5577 5576 5576 5576 5575 5574 5572 5572 5571 5569 5567 5567 5566 5563 5561 5560 5560 5559 5558 5557 5557 5556 5556 5557 5557 5558 5559 5561 5561 5561 5563 5564 5564 5564 5564 5566 5567 5569 5570 5571 5573 5574 5576 5578 5579 5582 5585 5588 5591 5594 5597 5600 5603 5606 5609 5612 5614 5617 5619 5622 5625 5628 5631 5633 5635 5636 5638 5639 5641 5643 5644 5646 5647 5648 5648 5648 5649 5649 5650 5651 5653
5580 5580 5580 5580 5579 5577 5576 5574 5574 5573 5573 5572 5571 5570 5570 5568 5566 5566 5565 5564 5562 5561 5560 5559 5558 5557 5556 5556 5555 5555 5555 5556 5557 5558 5558 5558 5560 5561 5562 5563 5563 5564 5564 5565 5567 5568 5570 5572 5573 5575 5577 5579 5581 5583 5586 5589 5592 5595 5598 5601 5603 5606 5607 5609 5612 5615 5618 5621 5623 5626 5628 5629 5631 5632 5635 5636 5638 5640 5641 5642 5642 5643 5643 5643 5644 5646 5649
5577 5576 5575 5575 5575 5575 5574 5573 5572 5571 5570 5569 5568 5568 5568 5567 5565 5564 5564 5563 5562 5561 5560 5559 5557 5557 5556 5555 5554 5554 5554 5554 5554 5554 5554 5556 5558 5559 5560 5561 5562 5563 5563 5563 5564 5566 5567 5569 5571 5572 5574 5576 5577 5579 5582 5585 5587 5590 5592 5595 5597 5599 5601 5602 5605 5607 5610 5613 5615 5618 5620 5622 5623 5626 5628 5630 5632 5633 5634 5636 5636 5636 5636 5638 5640 5641 5643
5572 5571 5571 5570 5570 5570 5570 5569 5569 5569 5568 5567 5566 5565 5565 5564 5564 5563 5562 5561 5561 5560 5559 5558 5557 5556 5555 5555 5554 5554 5554 5553 5553 5553 5554 5555 5556 5557 5558 5559 5560 5560 5561 5562 5563 5564 5565 5566 5568 5569 5570 5572 5574 5576 5578 5581 5583 5585 5587 5589 5591 5593 5594 5596 5598 5600 5602 5605 5607 5610 5612 5614 5617 5619 5622 5623 5625 5626 5628 5629 5629 5629 5630 5633 5634 5635 5636
5568 5567 5566 5566 5566 5565 5565 5565 5565 5565 5565 5565 5564 5563 5562 5562 5562 5561 5560 5560 5559 5558 5558 5557 5556 5555 5554 5554 5553 5553 5553 5553 5553 5554 5554 5554 5554 5555 5556 5557 5558 5558 5559 5560 5561 5563 5563 5564 5565 5566 5567 5569 5571 5573 5575 5577 5579 5581 5583 5584 5586 5588 5589 5590 5592 5593 5595 5597 5600 5602 5605 5608 5610 5613 5615 5617 5618 5620 5621 5623 5623 5624 5625 5626 5627 5628 5629
5566 5564 5562 5562 5562 5561 5561 5561 5561 5561 5561 5561 5561 5561 5560 5559 5559 5559 5558 5558 5557 5557 5556 5556 5555 5554 5553 5552 5552 5552 5552 5552 5552 5553 5553 5553 5553 5554 5555 5555 5556 5557 5558 5558 5559 5560 5561 5562 5562 5563 5564 5566 5568 5569 5571 5573 5575 5576 5578 5580 5582 5583 5585 5586 5586 5588 5589 5591 5593 5596 5599 5601 5604 5606 5608 5610 5612 5613 5615 5616 5617 5618 5619 5620 5621 5623 5624
5563 5562 5560 5559 5558 5557 5557 5557 5557 5557 5557 5557 5558 5558 5557 5557 5556 5556 5556 5555 5555 5554 5553 5553 5553 5553 5552 5552 5551 5550 5550 5551 5551 5551 5551 5552 5552 5553 5553 5554 5554 5555 5556 5557 5558 5559 5559 5560 5561 5562 5563 5564 5565 5567 5568 5569 5570 5572 5574 5575 5577 5579 5581 5582 5583 5584 5585 5587 5589 5591 5593 5596 5598 5600 5602 5605 5606 5607 5608 5610 5611 5612 5614 5615 5616 5618 5620
5559 5558 5557 5556 5555 5554 5553 5553 5552 5552 5552 5553 5553 5554 5554 5553 5553 5553 5552 5552 5552 5551 5551 5550 5551 5551 5550 5550 5550 5549 5549 5549 5549 5549 5549 5550 5551 5551 5551 5552 5552 5553 5554 5555 5556 5557 5558 5558 5559 5560 5561 5562 5563 5564 5565 5566 5567 5568 5570 5571 5572 5574 5576 5578 5579 5581 5582 5583 5585 5587 5588 5591 5592 5594 5596 5599 5600 5601 5603 5604 5605 5605 5607 5608 5609 5611 5613
5555 5554 5553 5552 5551 5551 5550 5549 5548 5548 5548 5548 5549 5549 5549 5549 5549 5549 5549 5549 5549 5549 5548 5548 5548 5548 5548 5549 5549 5549 5548 5548 5548 5548 5548 5548 5549 5549 5549 5550 5550 5551 5552 5553 5554 5555 5556 5557 5557 5558 5559 5560 5561 5562 5563 5563 5564 5565 5566 5568 5569 5571 5572 5574 5575 5576 5577 5579 5580 5582 5583 5585 5587 5588 5590 5592 5594 5596 5597 5598 5599 5600 5601 5601 5603 5605 5607
5550 5549 5548 5547 5547 5546 5546 5545 5545 5544 5544 5544 5544 5545 5545 5545 5545 5545 5545 5546 5546 5546 5545 5545 5545 5545 5546 5546 5546 5547 5547 5547 5547 5546 5546 5546 5547 5547 5548 5548 5548 5549 5549 5550 5551 5552 5553 5554 5555 5556 5557 5558 5559 5560 5560 5560 5561 5562 5563 5565 5567 5568 5569 5570 5571 5572 5573 5574 5576 5577 5579 5580 5582 5583 5584 5587 5590 5591 5591 5592 5593 5594 5595 5596 5598 5601 5603
5545 5544 5543 5543 5542 5541 5541 5540 5540 5540 5540 5540 5540 5540 5541 5541 5541 5541 5541 5542 5542 5542 5542 5542 5541 5542 5542 5543 5543 5544 5544 5544 5545 5545 5545 5545 5545 5545 5546 5546 5546 5546 5547 5547 5548 5549 5551 5552 5553 5554 5554 5555 5556 5557 5557 5558 5558 5559 5560 5561 5563 5564 5565 5566 5567 5568 5569 5570 5570 5571 5573 5576 5578 5579 5580 5582 5584 5584 5585 5586 5587 5588 5590 5593 5595 5598 5600
5539 5539 5538 5537 5537 5536 5536 5535 5535 5535 5535 5535 5535 5535 5536 5536 5536 5536 5537 5538 5538 5538 5538 5538 5538 5538 5538 5539 5539 5540 5540 5541 5541 5542 5542 5543 5543 5544 5544 5544 5544 5545 5545 5545 5546 5547 5548 5549 5550 5551 5552 5553 5554 5554 5555 5555 5556 5556 5557 5558 5559 5560 5561 5562 5563 5564 5564 5565 5565 5565 5566 5569 5571 5573 5575 5576 5578 5578 5579 5581 5582 5585 5587 5590 5591 5593 5596
5534 5533 5532 5532 5531 5531 5531 5530 5530 5530 5530 5530 5530 5530 5531 5531 5532 5532 5532 5533 5534 5534 5534 5534 5535 5535 5535 5535 5535 5536 5536 5537 5537 5538 5539 5540 5540 5541 5541 5542 5542 5543 5543 5543 5544 5544 5545 5546 5547 5549 5549 5550 5551 5551 5552 5552 5553 5554 5555 5555 5556 5557 5557 5558 5559 5559 5560 5561 5562 5563 5563 5564 5565 5566 5568 5570 5572 5574 5575 5577 5579 5582 5584 5586 5588 5590 5593
5529 5528 5527 5526 5526 5526 5525 5525 5525 5525 5525 5525 5525 5525 5525 5526 5526 5527 5527 5528 5529 5530 5530 5530 5531 5531 5531 5531 5532 5532 5532 5533 5533 5534 5535 5536 5537 5538 5538 5539 5540 5540 5541 5541 5542 5542 5543 5543 5544 5545 5546 5547 5548 5548 5549 5550 5551 5552 5552 5552 5553 5554 5555 5555 5556 5557 5557 5558 5558 5560 5561 5562 5563 5564 5565 5567 5569 5571 5573 5575 5577 5579 5582 5583 5585 5587 5590
5524 5523 5522 5521 5520 5519 5519 5519 5519 5519 5519 5520 5520 5520 5520 5520 5521 5521 5522 5522 5523 5524 5525 5526 5526 5527 5528 5528 5528 5528 5528 5529 5530 5530 5531 5532 5533 5534 5535 5536 5536 5537 5538 5539 5539 5540 5540 5541 5542 5542 5543 5544 5544 5545 5546 5547 5548 5549 5549 5550 5550 5551 5552 5553 5554 5554 5555 5556 5556 5556 5558 5559 5561 5562 5563 5565 5566 5569 5571 5573 5575 5577 5579 5580 5582 5583 5585
5517 5516 5515 5514 5513 5513 5513 5513 5513 5513 5513 5514 5514 5515 5515 5515 5516 5516 5517 5517 5518 5518 5519 5520 5521 5523 5523 5524 5524 5525 5525 5525 5526 5527 5528 5528 5529 5530 5531 5532 5533 5534 5534 5535 5536 5537 5538 5538 5539 5540 5540 5541 5541 5542 5543 5544 5545 5545 5546 5547 5548 5548 5549 5551 5551 5552 5553 5553 5554 5554 5554 5556 5557 5558 5560 5561 5563 5565 5568 5570 5571 5573 5574 5576 5577 5579 5580
5511 5509 5508 5507 5507 5506 5506 5506 5506 5507 5507 5507 5508 5509 5509 5510 5510 5511 5511 5512 5512 5513 5514 5515 5516 5517 5519 5519 5520 5521 5521 5522 5522 5523 5524 5525 5525 5526 5527 5528 5529 5530 5531 5531 5532 5533 5534 5535 5536 5537 5537 5538 5538 5539 5540 5540 5541 5542 5543 5543 5544 5545 5546 5548 5549 5550 5550 5551 5551 5551 5552 5553 5554 5555 5557 5558 5560 5562 5564 5566 5567 5569 5570 5571 5573 5574 5576
5505 5503 5502 5501 5500 5499 5499 5499 5499 5499 5500 5500 5501 5502 5503 5504 5504 5505 5506 5507 5507 5507 5508 5509 5510 5512 5513 5514 5515 5516 5517 5518 5518 5519 5520 5521 5521 5522 5523 5524 5525 5526 5526 5527 5528 5529 5530 5531 5532 5533 5534 5535 5535 5536 5537 5537 5538 5539 5540 5540 5541 5542 5543 5544 5545 5547 5548 5548 5549 5549 5550 5551 5552 5553 5554 5556 5557 5559 5561 5562 5563 5565 5566 5567 5569 5570 5571
5499 5497 5496 5494 5493 5493 5492 5492 5492 5492 5492 5493 5494 5495 5496 5497 5498 5499 5500 5501 5502 5502 5503 5503 5504 5505 5507 5508 5510 5511 5512 5513 5514 5515 5516 5516 5517 5518 5519 5520 5521 5521 5522 5523 5524 5525 5526 5527 5528 5529 5530 5531 5532 5532 5533 5534 5535 5536 5537 5537 5538 5539 5540 5541 5542 5543 5544 5545 5546 5547 5548 5548 5549 5550 5551 5553 5554 5556 5557 5558 5559 5561 5562 5563 5565 5566 5567
5494 5492 5490 5489 5487 5486 5485 5485 5485 5485 5485 5485 5486 5487 5488 5489 5491 5492 5493 5494 5496 5497 5497 5498 5499 5500 5501 5502 5504 5506 5507 5508 5510 5510 5511 5512 5513 5514 5515 5516 5516 5517 5518 5519 5520 5521 5521 5522 5523 5524 5526 5527 5528 5529 5529 5530 5531 5532 5533 5534 5535 5535 5536 5537 5538 5540 5541 5542 5543 5544 5545 5545 5546 5547 5548 5549 5550 5551 5552 5553 5555 5556 5557 5558 5560 5561 5562
5490 5487 5485 5483 5482 5480 5479 5478 5478 5478 5478 5478 5479 5480 5481 5482 5483 5485 5486 5487 5489 5490 5491 5492 5493 5494 5495 5496 5498 5500 5501 5503 5504 5505 5506 5507 5508 5510 5511 5511 5512 5513 5514 5515 5516 5516 5517 5518 5519 5520 5521 5522 5523 5524 5525 5526 5527 5527 5528 5529 5530 5531 5532 5533 5534 5535 5536 5537 5538 5539 5540 5541 5541 5542 5544 5545 5546 5547 5548 5549 5550 5551 5552 5553 5554 5555 5556
5485 5483 5481 5479 5477 5475 5473 5472 5471 5471 5470 5471 5471 5472 5473 5474 5475 5477 5478 5480 5481 5483 5484 5486 5487 5488 5489 5490 5492 5494 5496 5497 5498 5500 5501 5502 5503 5504 5506 5507 5508 5509 5510 5511 5511 5512 5513 5514 5515 5516 5517 5517 5518 5519 5521 5522 5523 5523 5524 5525 5526 5527 5528 5528 5529 5531 5532 5533 5534 5535 5535 5536 5537 5538 5539 5540 5541 5542 5543 5544 5545 5546 5547 5548 5549 5550 5550
5481 5479 5477 5475 5472 5470 5468 5467 5465 5464 5464 5464 5464 5464 5465 5466 5468 5469 5470 5472 5474 5476 5477 5479 5481 5482 5483 5485 5486 5488 5490 5491 5493 5494 5495 5497 5498 5499 5500 5501 5502 5504 5505 5506 5507 5508 5509 5510 5511 5512 5513 5513 5514 5515 5516 5517 5518 5519 5520 5521 5522 5523 5523 5524 5524 5525 5527 5528 5529 5530 5530 5531 5532 5532 5533 5535 5536 5537 5538 5539 5540 5540 5541 5542 5542 5543 5543
5477 5475 5472 5470 5468 5466 5463 5462 5460 5459 5457 5457 5457 5457 5457 5458 5460 5461 5462 5464 5466 5468 5470 5472 5474 5475 5477 5478 5480 5482 5484 5486 5487 5489 5490 5491 5493 5494 5495 5496 5497 5498 5499 5501 5502 5503 5504 5505 5506 5507 5508 5509 5510 5511 5512 5512 5513 5515 5516 5517 5518 5518 5519 5519 5520 5521 5522 5524 5525 5525 5526 5526 5527 5527 5528 5529 5530 5531 5532 5533 5534 5534 5535 5536 5536 5537 5537
5473 5470 5468 5466 5463 5461 5459 5457 5455 5453 5452 5451 5450 5450 5450 5451 5452 5453 5455 5456 5458 5460 5462 5464 5466 5468 5469 5471 5473 5476 5478 5480 5482 5484 5485 5486 5487 5488 5489 5490 5492 5493 5494 5495 5496 5498 5499 5500 5501 5502 5503 5505 5506 5507 5507 5508 5509 5510 5511 5512 5513 5514 5514 5515 5515 5517 5518 5519 5520 5520 5521 5521 5522 5522 5523 5524 5525 5526 5526 5527 5528 5528 5529 5529 5530 5530 5531
5468 5466 5464 5461 5459 5457 5454 5452 5450 5448 5446 5445 5444 5443 5443 5443 5444 5445 5447 5448 5450 5452 5454 5456 5458 5460 5462 5465 5467 5469 5472 5474 5476 5478 5480 5481 5482 5483 5484 5485 5486 5487 5488 5489 5491 5492 5493 5494 5495 5496 5498 5499 5501 5502 5502 5503 5504 5505 5506 5507 5508 5509 5509 5510 5510 5511 5512 5514 5515 5515 5516 5516 5517 5517 5518 5519 5520 5520 5521 5522 5522 5523 5523 5523 5524 5524 5524